Location: Donkervliet
(52.2333°N, 5.0000°E)
Time: 20:09:21
(UTC+00:00)

Daily predictions for brighter satellites

Satellite Brightness Start Highest point End
(mag) Time Altitude Azimuth Time Altitude Azimuth Time Altitude Azimuth
ATLAS 5 CENTAUR R/B 1.9 17:04:50 10° SW 17:09:13 75° NW 17:14:14 10° NE
Unknown 3.7 17:05:27 10° WSW 17:09:36 82° SSE 17:13:45 10° ENE
Unknown 3.7 17:07:06 10° WSW 17:11:16 83° SSE 17:15:26 10° ENE
Meteor 1-16 Rocket 4.4 17:07:38 10° SSE 17:12:54 49° E 17:18:03 10° NNE
Meteor 1-11 4.4 17:09:19 10° N 17:14:58 53° ENE 17:20:38 10° SSE
ASTEX 1 3.8 17:11:25 10° NNE 17:16:09 43° E 17:20:53 10° SSE
Cosmos 1908 4.2 17:12:56 10° SSE 17:16:12 26° E 17:19:29 10° NNE
Cosmos 1953 2.4 17:12:45 10° S 17:16:50 89° ENE 17:20:55 10° N
Unknown 3.6 17:13:06 10° WSW 17:17:15 86° SSE 17:21:25 10° ENE
Unknown 3.6 17:13:44 10° WSW 17:17:53 86° S 17:22:04 10° ENE
Cosmos 2278 Rocket 3.1 17:13:11 10° SSE 17:17:56 28° ESE 17:22:43 10° NE
Cosmos 1626 4.4 17:14:46 10° NNW 17:18:07 31° W 17:21:26 10° SSW
FengYun 1-2 T 4.3 17:12:49 10° SE 17:18:19 58° ENE 17:23:49 10° N
Unknown 3.6 17:15:10 10° WSW 17:19:20 87° SSE 17:23:28 10° ENE
Unknown 3.6 17:17:00 10° WSW 17:21:11 88° SSE 17:25:16 11° ENE
Unknown 3.6 17:18:45 10° WSW 17:22:55 89° SSE 17:26:53 11° ENE
Cosmos 1844 3.8 17:18:30 10° SSW 17:24:14 82° ESE 17:30:04 10° NNE
Unknown 3.6 17:20:31 10° WSW 17:24:41 90° NNW 17:28:35 12° ENE
SKYMED 2 4.1 17:20:47 10° NNE 17:24:51 37° E 17:28:53 10° SSE
Cosmos 1726 2.4 17:21:24 10° SSE 17:24:52 43° E 17:28:22 10° NNE
Unknown 3.3 17:22:03 10° WNW 17:25:27 71° SSW 17:28:51 10° ESE
Abrixas rocket 4.0 17:24:00 10° SSW 17:26:05 17° SSE 17:28:09 10° ESE
Unknown 3.6 17:23:50 10° WSW 17:28:00 88° N 17:31:46 12° E
Unknown 3.6 17:24:00 10° WSW 17:28:09 89° N 17:31:55 13° E
Unknown 3.3 17:25:06 10° W 17:28:51 80° N 17:32:10 13° E
Cosmos 2058 4.3 17:26:19 10° NNE 17:29:26 19° ENE 17:32:31 10° ESE
Unknown 3.6 17:25:23 10° WSW 17:29:33 89° NNW 17:33:15 13° E
YAOGAN 1 2.8 17:25:27 10° SE 17:29:36 48° ENE 17:33:47 10° N
FALCON 9 DEB 3.3 17:27:26 10° WNW 17:30:53 73° SSW 17:34:14 11° ESE
Cosmos 2084 3.8 17:27:58 10° SW 17:32:30 73° NW 17:36:56 10° NE
Cosmos 2228 3.1 17:28:15 10° S 17:32:37 88° WNW 17:36:59 10° N
Unknown 3.6 17:28:37 10° WSW 17:32:47 88° NNW 17:36:21 14° E
CSL-04 Rocket 3.7 17:28:13 10° SE 17:33:38 60° ENE 17:39:01 10° N
Lacrosse 5 1.9 17:28:35 10° WNW 17:33:41 89° NNE 17:38:46 10° ESE
Cosmos 1470 4.5 17:31:58 10° SW 17:35:41 37° WNW 17:39:25 10° N
H-2A R/B 3.7 17:33:28 12° E 17:36:08 17° NE 17:39:28 10° NNE
Unknown 3.6 17:32:01 10° W 17:36:11 86° N 17:39:37 15° E
Cosmos 2263 Rocket 4.1 17:32:04 10° W 17:36:47 26° NW 17:41:30 10° NNE
Unknown 3.6 17:33:43 10° W 17:37:53 86° N 17:41:15 15° E
Envisat 3.1 17:33:06 10° SSE 17:38:12 86° WSW 17:43:20 10° NNW
Cosmos 1726 Rocket 3.6 17:34:09 10° SSW 17:38:33 82° WNW 17:42:56 10° N
Unknown 3.6 17:35:23 10° W 17:39:32 85° N 17:42:51 16° E
Cosmos 921 Rocket 3.1 17:36:01 10° SSW 17:40:32 88° WNW 17:44:59 10° NNE
Unknown 3.6 17:37:03 10° W 17:41:13 85° NNW 17:44:27 16° E
CENTAUR R/B 4.2 17:39:25 10° ESE 17:40:48 11° ESE 17:40:48 11° ESE
Cosmos 1898 Rocket 4.4 17:36:48 10° NNW 17:41:26 30° NE 17:45:15 14° ESE
Unknown 3.3 17:40:30 10° WNW 17:44:02 71° SSW 17:46:48 15° ESE
Unknown 3.6 17:40:24 10° W 17:44:33 84° N 17:47:39 17° E
Unknown 3.6 17:42:06 10° W 17:46:16 83° N 17:49:18 18° E
Cosmos 1356 3.3 17:43:19 10° S 17:46:45 76° E 17:50:13 10° NNE
Falcon 9 debris 3.5 17:43:26 10° WNW 17:46:51 59° SSW 17:49:37 15° SE
Unknown 3.6 17:43:42 10° W 17:47:52 83° N 17:50:50 19° E
Meteor 2-10 3.9 17:42:53 10° S 17:47:54 72° E 17:52:57 10° NNE
Cosmos 1328 4.1 17:44:07 10° NNW 17:48:06 70° W 17:52:01 10° S
NOAA 11 4.4 17:43:30 10° SE 17:48:43 50° ENE 17:53:57 10° N
Cosmos 1833 Rocket 2.7 17:43:36 10° NNW 17:49:16 86° ENE 17:54:54 10° SSE
Unknown 3.6 17:45:19 10° W 17:49:29 83° N 17:52:23 19° E
Unknown 3.6 17:46:36 10° W 17:50:46 82° N 17:53:38 20° E
Unknown 3.6 17:48:30 10° W 17:52:39 83° N 17:55:26 20° E
Unknown 3.6 17:51:51 10° W 17:56:00 82° N 17:58:39 22° E
YAOGAN 6 2.7 17:52:51 10° S 17:56:31 78° WSW 18:00:09 10° NNW
USA 116 3.6 17:53:33 10° NNE 17:56:35 41° E 17:59:48 10° S
Unknown 3.4 17:53:07 10° W 17:56:58 81° N 17:59:13 24° E
Cosmos 1939 Rocket 3.1 17:53:13 10° SE 17:57:04 46° ENE 18:01:00 10° N
Unknown 3.6 17:53:30 10° W 17:57:40 81° N 18:00:14 22° E
Unknown 3.6 17:55:23 10° W 17:59:33 80° N 18:02:03 23° E
Unknown 3.6 17:56:50 10° W 18:00:59 81° N 18:03:26 24° E
Cosmos 2058 Rocket 3.3 17:57:31 10° SSW 18:01:52 73° WNW 18:06:15 10° N
USA 238 DEB 4.1 17:56:25 10° S 18:02:32 39° ESE 18:08:11 13° NE
Unknown 3.6 17:58:28 10° W 18:02:38 81° N 18:05:00 25° E
USA 238 4.1 17:56:33 10° S 18:02:40 39° ESE 18:08:16 13° NE
COBE Rocket 4.2 18:00:26 10° N 18:05:37 76° WNW 18:10:41 10° SSW
Unknown 3.7 18:02:33 10° WNW 18:05:58 53° SSW 18:08:00 22° SE
Unknown 3.6 18:01:51 10° W 18:06:00 80° N 18:08:15 26° E
Unknown 3.6 18:03:29 10° W 18:07:39 80° N 18:09:49 27° E
CZ-2D R/B 3.2 18:05:07 10° SSE 18:08:57 66° ENE 18:12:49 10° N
Unknown 3.6 18:05:10 10° W 18:09:20 80° N 18:11:26 28° E
SJ 16-02 2.3 18:05:48 10° N 18:09:37 28° NE 18:10:33 25° ENE
Cosmos 1300 3.3 18:06:46 10° SSE 18:10:13 33° E 18:13:41 10° NNE
Unknown 3.6 18:06:49 10° W 18:10:58 79° N 18:13:01 29° E
Cosmos 2227 Rocket 4.5 18:10:36 10° NNW 18:12:23 11° N 18:14:08 10° NNE
Cosmos 1461 3.7 18:09:06 10° NW 18:13:02 49° SW 18:17:05 10° SSE
COSMO-SKYMED 1 2.7 18:08:42 10° NNE 18:13:04 80° WNW 18:17:25 10° SSW
Unknown 3.6 18:10:13 10° W 18:14:23 79° N 18:16:16 31° E
Unknown 3.4 18:10:52 10° W 18:14:46 83° N 18:16:22 34° E
Cosmos 2061 Rocket 4.4 18:09:00 10° N 18:14:52 40° ENE 18:19:06 18° SE
Unknown 3.6 18:11:22 10° W 18:15:31 79° N 18:17:22 32° E
Unknown 3.6 18:12:02 10° W 18:16:11 79° N 18:18:00 33° E
Unknown 3.5 18:12:19 10° W 18:16:23 79° N 18:18:05 34° E
Cosmos 1339 Rocket 4.4 18:11:22 10° S 18:17:28 85° E 18:23:42 10° N
Cosmos 2297 Rocket 4.5 18:15:50 10° NNW 18:17:34 11° N 18:19:19 10° NNE
Unknown 3.6 18:13:43 10° W 18:17:53 79° N 18:19:37 34° E
Cosmos 2082 Rocket 2.2 18:12:13 10° NNW 18:17:58 84° WSW 18:23:40 10° SSE
Cosmos 1459 Rocket 4.1 18:13:28 10° N 18:19:35 54° ENE 18:25:44 10° SSE
Unknown 3.6 18:15:55 10° W 18:20:01 78° N 18:21:37 36° E
Ariane Rocket 2.9 18:15:44 10° SSE 18:20:49 72° ENE 18:25:56 10° NNW
Unknown 3.6 18:16:52 10° W 18:21:01 79° N 18:22:39 36° E
CZ-2C R/B 4.3 18:22:04 24° ENE 18:23:02 26° ENE 18:27:39 10° N
Unknown 3.6 18:20:09 10° W 18:24:18 79° N 18:25:48 39° E
Cosmos 2084 Rocket 3.6 18:20:40 10° NW 18:25:07 77° SW 18:27:37 25° SE
Unknown 3.6 18:21:50 10° W 18:26:00 79° N 18:27:25 40° E
ATLAS CENTAUR R/B 3.2 18:22:25 10° NNW 18:26:02 22° NNE 18:27:18 19° NE
CZ-4 R/B 2.9 18:22:11 10° SSW 18:26:09 40° W 18:30:10 10° NNW
NOSS 3-2 (A) 3.7 18:20:47 10° S 18:26:16 43° ESE 18:29:49 23° ENE
Unknown 3.6 18:23:29 10° W 18:27:38 79° N 18:28:59 41° E
Unknown 3.6 18:25:09 10° W 18:29:18 79° N 18:30:35 43° E
Cosmos 1766 Rocket 4.1 18:27:04 10° N 18:30:55 35° ENE 18:30:55 35° ENE
Meteor 2-1 Rocket 4.4 18:27:03 10° SSE 18:32:14 44° E 18:37:30 10° NNE
Cosmos 1844 Rocket 4.2 18:27:33 10° WSW 18:32:40 35° NW 18:37:49 10° NNE
HJ-1C 3.2 18:32:27 48° SSE 18:33:15 75° ENE 18:36:38 10° N
Cosmos 1937 Rocket 3.7 18:30:01 10° NNW 18:35:03 49° ENE 18:36:31 38° ESE
Unknown 3.6 18:31:48 10° W 18:35:57 79° N 18:36:58 50° E
Cosmos 990 Rocket 4.0 18:32:05 10° NNW 18:37:16 63° ENE 18:39:26 34° SE
Unknown 3.6 18:33:30 10° W 18:37:40 79° N 18:38:36 52° ENE
Okean 3 Rocket 3.7 18:33:31 10° N 18:37:59 53° ENE 18:38:58 44° ESE
Unknown 3.6 18:35:06 10° W 18:39:16 79° N 18:40:08 54° ENE
Unknown 3.6 18:36:47 10° W 18:40:57 79° N 18:41:45 56° ENE
Resurs 01 Rocket 3.3 18:42:28 19° NNE 18:42:28 19° NNE 18:44:28 10° N
Unknown 3.6 18:38:27 10° W 18:42:36 80° N 18:43:21 58° ENE
In-Cosmos 22 Rocket 4.0 18:37:15 10° N 18:42:39 74° ENE 18:46:47 18° SSE
Cosmos 1727 Rocket 3.9 18:37:09 10° S 18:43:19 89° W 18:49:33 10° N
Unknown 3.5 18:41:47 10° W 18:45:56 80° N 18:46:33 63° ENE
Cosmos 2173 Rocket 3.9 18:40:24 10° N 18:46:43 81° ENE 18:52:54 10° SSE
Cosmos 1076 Rocket 3.9 18:43:04 10° NNW 18:47:25 65° W 18:51:43 10° S
Starlink (trailer) 3.5 18:43:26 10° W 18:47:36 80° N 18:48:08 65° ENE
Unknown 3.5 18:45:07 10° W 18:49:17 81° N 18:49:44 68° ENE
Unknown 3.5 18:46:47 10° W 18:50:56 81° N 18:51:21 70° ENE
NOSS 3-2 (C) 3.7 18:45:54 10° S 18:51:21 42° ESE 18:51:57 41° ESE
SJ-6B 3.7 18:52:53 35° NNE 18:52:53 35° NNE 18:55:20 10° N
Cosmos 1802 Rocket 3.9 18:45:51 10° N 18:52:20 76° ENE 18:57:43 15° SSE
ADEOS Rocket 3.8 18:45:29 10° NNE 18:52:46 42° E 18:59:32 10° SSE
ATLAS 5 CENTAUR R/B 3.4 18:50:35 10° WNW 18:54:39 28° NNW 18:57:39 17° NNE
Cosmos 1812 Rocket 3.9 18:51:50 10° SSW 18:56:14 67° WNW 19:00:43 10° N
Unknown 3.5 18:52:47 10° W 18:56:57 82° N 18:57:05 80° NE
Unknown 3.5 18:53:25 10° W 18:57:35 82° N 18:57:43 80° NE
SPOT 3 Rocket 3.5 18:57:17 51° ESE 18:58:20 64° ENE 19:03:31 10° N
Unknown 3.5 18:54:53 10° W 18:59:04 83° N 18:59:09 82° NE
Unknown 3.5 18:56:41 10° W 19:00:53 83° N 19:00:54 83° NNE
Cosmos 2123 Rocket 4.2 19:01:06 46° E 19:01:23 47° E 19:07:20 10° NNE
Abrixas rocket 4.2 18:58:36 10° WSW 18:59:58 22° SW 18:59:58 22° SW
Cosmos 2278 Rocket 2.6 18:56:02 10° SW 19:01:40 63° NW 19:07:20 10° NNE
SL-27 R/B 4.3 18:58:32 10° NNW 18:59:51 21° N 18:59:51 21° N
Unknown 3.5 18:58:27 10° W 19:02:32 83° NNW 19:02:32 83° NNW
Cosmos 2297 3.7 18:58:43 10° S 19:04:16 57° ESE 19:04:48 55° E
Unknown 3.6 19:00:13 10° W 19:04:14 82° NW 19:04:14 82° NW
Cosmos 2058 3.6 19:02:34 10° NNW 19:06:43 55° W 19:08:58 25° SSW
Unknown 4.1 19:03:11 10° WNW 19:06:23 48° SW 19:06:23 48° SW
Unknown 3.7 19:03:32 10° W 19:07:25 77° WNW 19:07:25 77° WNW
Unknown 3.7 19:03:41 10° W 19:07:33 76° WNW 19:07:33 76° WNW
Cosmos 1725 Rocket 3.9 19:01:57 10° N 19:08:14 68° ENE 19:10:07 46° SE
Cosmos 2233 Rocket 4.2 19:02:18 10° N 19:08:22 47° ENE 19:08:30 47° ENE
Unknown 3.7 19:05:05 10° W 19:08:54 74° WNW 19:08:54 74° WNW
Cosmos 1000 Rocket 4.3 19:04:11 10° S 19:10:22 82° E 19:16:41 10° NNE
Cosmos 2151 3.1 19:07:51 10° N 19:11:41 69° N 19:11:41 69° N
Unknown 3.8 19:08:18 10° W 19:12:00 69° WNW 19:12:00 69° WNW
Cosmos 2100 Rocket 4.3 19:06:23 10° NNW 19:12:31 66° W 19:18:35 10° S
H-2A R/B 2.0 19:14:06 67° ESE 19:14:41 74° ENE 19:20:08 10° NNW
Unknown 3.9 19:11:42 10° W 19:15:16 64° WNW 19:15:16 64° WNW
Lacrosse 5 3.5 19:11:57 10° WNW 19:16:14 28° SW 19:18:16 21° SSW
Unknown 4.0 19:13:25 10° W 19:16:54 62° WNW 19:16:54 62° WNW
Unknown 4.1 19:15:04 10° W 19:18:30 59° WNW 19:18:30 59° WNW
Unknown 4.2 19:16:45 10° WNW 19:20:06 57° WNW 19:20:06 57° WNW
ATLAS 3B R/B 3.2 19:15:07 10° SSW 19:19:44 39° SSE 19:19:44 39° SSE
Cosmos 1892 4.0 19:19:19 10° NNW 19:21:41 35° NNW 19:21:41 35° NNW
Cosmos 1898 Rocket 4.0 19:18:41 10° NNW 19:23:52 58° WSW 19:25:34 39° SSW
ARGOS 3.0 19:23:53 78° ESE 19:24:11 81° ENE 19:29:39 10° NNW
Unknown 4.3 19:20:05 10° WNW 19:23:18 53° W 19:23:18 53° W
Cosmos 1238 Rocket 4.3 19:18:33 10° N 19:24:35 51° ENE 19:24:35 51° ENE
Unknown 4.4 19:21:48 10° WNW 19:24:57 51° W 19:24:57 51° W
Unknown 4.5 19:23:23 10° WNW 19:26:29 49° W 19:26:29 49° W
CENTAUR R/B 3.2 19:24:20 10° SSW 19:28:06 38° S 19:28:06 38° S
Cosmos 2016 Rocket 4.1 19:24:57 10° NNW 19:31:14 73° W 19:34:31 30° S
Meteor 2-3 Rocket 4.3 19:26:58 10° N 19:31:23 45° NNE 19:31:23 45° NNE
SJ 16-02 2.6 19:44:12 10° NW 19:47:34 39° WNW 19:47:34 39° WNW
USA 238 DEB 3.9 19:46:28 10° WSW 19:53:12 68° NW 19:55:39 42° NNE
USA 238 3.9 19:46:34 10° WSW 19:53:18 68° NW 19:55:43 42° NNE
Cosmos 2227 Rocket 4.2 19:55:14 10° NNW 19:58:17 17° NNE 19:58:17 17° NNE
CZ-2C R/B 3.6 20:03:09 65° NW 20:03:09 65° NW 20:08:11 10° NNW
Cosmos 2297 Rocket 4.2 20:00:11 10° NNW 20:03:06 18° NNE 20:03:06 18° NNE
ATLAS CENTAUR R/B 3.5 20:01:25 10° NW 20:03:29 25° NNW 20:03:29 25° NNW
NOSS 3-2 (A) 3.9 20:10:58 10° WSW 20:16:57 59° NW 20:17:15 58° NNW
Resurs 01 Rocket 3.9 20:20:03 21° NNW 20:20:03 21° NNW 20:21:37 10° NNW
ADEOS Rocket 4.0 20:30:56 10° N 20:38:27 56° WNW 20:45:29 10° SW
ATLAS 5 CENTAUR R/B 4.1 20:36:34 10° NW 20:39:10 22° NNW 20:39:10 22° NNW
Cosmos 2278 Rocket 4.5 20:42:50 10° WNW 20:46:56 20° NNW 20:50:32 12° NNE
H-2A R/B 4.2 20:54:44 21° W 20:54:44 21° W 20:58:45 10° NW
